RYR5VK LZKZ-LOWS

Flight info

Callsign RYR5VK
Flight time 0h 59m
Altitude 34000
Route TAKOS DCT TOVKA DCT MATIG MATIG2R
Aircraft B738/M-SDE2E3FGHIRWXY/LB1

Departure

Time 2026-05-06 19:13
Airport Košice International Airport (LZKZ)

Arrival

Time 2026-05-06 20:12
Airport Salzburg Airport (LOWS)
Time Latitude Longitude Altitude Speed Heading
2026-05-06 18:36 48.67331 21.23848 754 ft 0 kts 234°
2026-05-06 19:09 48.67330 21.23847 754 ft 1 kts 230°
2026-05-06 19:10 48.67324 21.23849 756 ft 1 kts 171°
2026-05-06 19:10 48.67323 21.23855 756 ft 1 kts 117°
2026-05-06 19:10 48.67323 21.23871 755 ft 3 kts 96°
2026-05-06 19:10 48.67309 21.23914 754 ft 6 kts 118°
2026-05-06 19:11 48.67294 21.23992 756 ft 9 kts 102°
2026-05-06 19:11 48.67277 21.24103 754 ft 12 kts 103°
2026-05-06 19:11 48.67257 21.24228 756 ft 12 kts 103°
2026-05-06 19:11 48.67239 21.24344 757 ft 11 kts 103°
2026-05-06 19:12 48.67210 21.24425 755 ft 7 kts 152°
2026-05-06 19:12 48.67161 21.24417 756 ft 7 kts 193°
2026-05-06 19:12 48.67079 21.24389 757 ft 31 kts 192°
2026-05-06 19:12 48.66611 21.24225 756 ft 106 kts 193°
2026-05-06 19:13 48.65682 21.23904 770 ft 165 kts 192°
2026-05-06 19:13 48.64552 21.23515 1516 ft 164 kts 193°
2026-05-06 19:13 48.63474 21.23136 2587 ft 154 kts 196°
2026-05-06 19:13 48.62454 21.22780 3508 ft 151 kts 197°
2026-05-06 19:14 48.61401 21.22406 4119 ft 165 kts 197°
2026-05-06 19:14 48.60173 21.21970 4393 ft 196 kts 196°
2026-05-06 19:14 48.58810 21.21489 4955 ft 203 kts 197°
2026-05-06 19:14 48.57411 21.20986 5617 ft 210 kts 199°
2026-05-06 19:15 48.56199 21.19833 6394 ft 209 kts 231°
2026-05-06 19:15 48.55556 21.17818 6997 ft 226 kts 256°
2026-05-06 19:15 48.55620 21.15278 7281 ft 258 kts 277°
2026-05-06 19:15 48.56028 21.12580 7994 ft 268 kts 280°
2026-05-06 19:16 48.56485 21.09795 8885 ft 271 kts 280°
2026-05-06 19:16 48.56922 21.07060 9781 ft 273 kts 280°
2026-05-06 19:16 48.57288 21.04226 10427 ft 281 kts 272°
2026-05-06 19:16 48.57366 21.01102 10628 ft 306 kts 267°
2026-05-06 19:17 48.57363 20.97760 10828 ft 331 kts 268°
2026-05-06 19:17 48.57381 20.94192 11111 ft 350 kts 268°
2026-05-06 19:17 48.57424 20.90391 11306 ft 370 kts 269°
2026-05-06 19:17 48.57484 20.86514 11832 ft 379 kts 269°
2026-05-06 19:18 48.57548 20.82508 12477 ft 383 kts 269°
2026-05-06 19:18 48.57610 20.78461 13145 ft 387 kts 269°
2026-05-06 19:18 48.57669 20.74369 13744 ft 393 kts 268°
2026-05-06 19:18 48.57728 20.70231 14346 ft 395 kts 269°
2026-05-06 19:19 48.57793 20.66073 15004 ft 396 kts 268°
2026-05-06 19:19 48.57845 20.61889 15627 ft 399 kts 268°
2026-05-06 19:19 48.57896 20.57679 16261 ft 401 kts 268°
2026-05-06 19:19 48.57946 20.53508 16864 ft 404 kts 269°
2026-05-06 19:20 48.57997 20.49253 17444 ft 407 kts 269°
2026-05-06 19:20 48.58048 20.44965 17991 ft 410 kts 269°
2026-05-06 19:20 48.58098 20.40643 18504 ft 413 kts 269°
2026-05-06 19:20 48.58148 20.36290 18978 ft 416 kts 269°
2026-05-06 19:21 48.58196 20.31897 19452 ft 419 kts 269°
2026-05-06 19:21 48.58241 20.27480 19926 ft 422 kts 269°
2026-05-06 19:21 48.58143 20.23043 20397 ft 424 kts 264°
2026-05-06 19:21 48.57837 20.18610 20867 ft 426 kts 261°
2026-05-06 19:22 48.57444 20.14161 21316 ft 428 kts 261°
2026-05-06 19:22 48.57026 20.09696 21744 ft 431 kts 261°
2026-05-06 19:22 48.56611 20.05202 22180 ft 434 kts 261°
2026-05-06 19:22 48.56209 20.00678 22604 ft 436 kts 261°
2026-05-06 19:23 48.55817 19.96122 23017 ft 439 kts 261°
2026-05-06 19:23 48.55431 19.91529 23413 ft 442 kts 262°
2026-05-06 19:23 48.55049 19.86917 23750 ft 444 kts 262°
2026-05-06 19:23 48.54669 19.82300 24116 ft 445 kts 262°
2026-05-06 19:24 48.54286 19.77659 24492 ft 446 kts 262°
2026-05-06 19:24 48.53916 19.73185 24833 ft 447 kts 262°
2026-05-06 19:24 48.53541 19.68674 25136 ft 449 kts 262°
2026-05-06 19:24 48.53153 19.64042 25451 ft 451 kts 262°
2026-05-06 19:25 48.52752 19.59282 25763 ft 452 kts 262°
2026-05-06 19:25 48.52358 19.54630 26066 ft 454 kts 261°
2026-05-06 19:25 48.51951 19.49844 26357 ft 455 kts 261°
2026-05-06 19:25 48.51550 19.45167 26607 ft 456 kts 261°
2026-05-06 19:26 48.51142 19.40419 26867 ft 457 kts 261°
2026-05-06 19:26 48.50732 19.35676 27185 ft 455 kts 261°
2026-05-06 19:26 48.50322 19.30953 27552 ft 453 kts 261°
2026-05-06 19:26 48.49912 19.26249 27922 ft 452 kts 261°
2026-05-06 19:27 48.49500 19.21551 28272 ft 451 kts 261°
2026-05-06 19:27 48.49088 19.16877 28637 ft 449 kts 261°
2026-05-06 19:27 48.48675 19.12217 29009 ft 448 kts 261°
2026-05-06 19:27 48.48263 19.07573 29399 ft 446 kts 261°
2026-05-06 19:28 48.47849 19.02948 29790 ft 445 kts 261°
2026-05-06 19:28 48.47435 18.98332 30130 ft 443 kts 261°
2026-05-06 19:28 48.47020 18.93735 30416 ft 442 kts 261°
2026-05-06 19:28 48.46604 18.89149 30717 ft 441 kts 261°
2026-05-06 19:29 48.46188 18.84579 31052 ft 439 kts 261°
2026-05-06 19:29 48.45772 18.80027 31347 ft 438 kts 261°
2026-05-06 19:29 48.45354 18.75478 31608 ft 439 kts 261°
2026-05-06 19:29 48.44934 18.70924 31871 ft 438 kts 260°
2026-05-06 19:30 48.44515 18.66398 32155 ft 437 kts 260°
2026-05-06 19:30 48.44093 18.61863 32437 ft 436 kts 260°
2026-05-06 19:30 48.43671 18.57352 32743 ft 434 kts 260°
2026-05-06 19:30 48.43249 18.52854 33017 ft 434 kts 260°
2026-05-06 19:31 48.42825 18.48361 33257 ft 434 kts 260°
2026-05-06 19:31 48.42400 18.43872 33512 ft 433 kts 260°
2026-05-06 19:31 48.41545 18.34909 33819 ft 435 kts 260°
2026-05-06 19:32 48.40681 18.25909 33821 ft 432 kts 260°
2026-05-06 19:32 48.39816 18.16982 33826 ft 431 kts 259°
2026-05-06 19:33 48.38951 18.08134 33822 ft 430 kts 259°
2026-05-06 19:33 48.38074 17.99237 33822 ft 430 kts 259°
2026-05-06 19:34 48.37190 17.90338 33817 ft 430 kts 259°
2026-05-06 19:34 48.36299 17.81441 33814 ft 430 kts 259°
2026-05-06 19:35 48.35396 17.72498 33814 ft 430 kts 259°
2026-05-06 19:35 48.34493 17.63619 33803 ft 429 kts 259°
2026-05-06 19:36 48.33585 17.54756 33796 ft 429 kts 259°
2026-05-06 19:36 48.32669 17.45899 33786 ft 428 kts 259°
2026-05-06 19:37 48.31749 17.37065 33797 ft 428 kts 259°
2026-05-06 19:37 48.30979 17.29729 33807 ft 427 kts 258°
2026-05-06 19:38 48.29890 17.19421 33806 ft 427 kts 258°
2026-05-06 19:38 48.28952 17.10619 33798 ft 427 kts 258°
2026-05-06 19:39 48.28009 17.01815 33795 ft 427 kts 258°
2026-05-06 19:39 48.27063 16.93022 33786 ft 427 kts 259°
2026-05-06 19:40 48.26539 16.84187 33778 ft 428 kts 263°
2026-05-06 19:40 48.26138 16.75282 33776 ft 428 kts 263°
2026-05-06 19:41 48.25724 16.66394 33773 ft 427 kts 263°
2026-05-06 19:41 48.25286 16.57508 33777 ft 426 kts 263°
2026-05-06 19:42 48.24834 16.48635 33772 ft 426 kts 262°
2026-05-06 19:42 48.24375 16.39785 33770 ft 425 kts 262°
2026-05-06 19:43 48.23909 16.30948 33764 ft 424 kts 262°
2026-05-06 19:43 48.23439 16.22141 33758 ft 423 kts 262°
2026-05-06 19:44 48.22964 16.13377 33756 ft 422 kts 262°
2026-05-06 19:44 48.22483 16.04617 33754 ft 421 kts 262°
2026-05-06 19:45 48.22006 15.96041 33739 ft 419 kts 262°
2026-05-06 19:45 48.21536 15.87717 33748 ft 418 kts 262°
2026-05-06 19:46 48.21124 15.80511 33745 ft 417 kts 262°
2026-05-06 19:46 48.20873 15.76167 33598 ft 417 kts 261°
2026-05-06 19:46 48.20623 15.71852 33303 ft 414 kts 261°
2026-05-06 19:47 48.20374 15.67572 33044 ft 411 kts 261°
2026-05-06 19:47 48.20123 15.63299 32782 ft 413 kts 261°
2026-05-06 19:47 48.19867 15.58998 32526 ft 415 kts 261°
2026-05-06 19:47 48.19610 15.54689 32266 ft 416 kts 261°
2026-05-06 19:48 48.19351 15.50368 32012 ft 417 kts 261°
2026-05-06 19:48 48.19089 15.46029 31756 ft 418 kts 261°
2026-05-06 19:48 48.18825 15.41686 31507 ft 418 kts 261°
2026-05-06 19:48 48.18560 15.37334 31259 ft 419 kts 261°
2026-05-06 19:49 48.18292 15.32986 31005 ft 420 kts 261°
2026-05-06 19:49 48.18024 15.28634 30758 ft 420 kts 261°
2026-05-06 19:49 48.17756 15.24334 30518 ft 420 kts 261°
2026-05-06 19:49 48.17483 15.19972 30276 ft 421 kts 261°
2026-05-06 19:50 48.17208 15.15603 30033 ft 421 kts 261°
2026-05-06 19:50 48.16931 15.11233 29793 ft 422 kts 261°
2026-05-06 19:50 48.16652 15.06852 29517 ft 422 kts 261°
2026-05-06 19:50 48.16372 15.02484 29231 ft 421 kts 261°
2026-05-06 19:51 48.16091 14.98127 28946 ft 420 kts 261°
2026-05-06 19:51 48.15809 14.93774 28678 ft 418 kts 261°
2026-05-06 19:51 48.15528 14.89458 28209 ft 414 kts 261°
2026-05-06 19:51 48.15250 14.85194 27684 ft 407 kts 260°
2026-05-06 19:52 48.14974 14.80999 27117 ft 402 kts 260°
2026-05-06 19:52 48.14700 14.76857 26551 ft 398 kts 260°
2026-05-06 19:52 48.14426 14.72755 26003 ft 394 kts 260°
2026-05-06 19:52 48.14153 14.68691 25462 ft 391 kts 260°
2026-05-06 19:53 48.13881 14.64673 24939 ft 388 kts 260°
2026-05-06 19:53 48.13632 14.61012 24455 ft 386 kts 260°
2026-05-06 19:53 48.13359 14.57020 23911 ft 384 kts 260°
2026-05-06 19:53 48.13087 14.53054 23373 ft 383 kts 260°
2026-05-06 19:54 48.12814 14.49099 22767 ft 381 kts 260°
2026-05-06 19:54 48.12542 14.45171 22201 ft 378 kts 260°
2026-05-06 19:54 48.12271 14.41273 21657 ft 375 kts 260°
2026-05-06 19:54 48.12002 14.37409 21132 ft 372 kts 260°
2026-05-06 19:55 48.11733 14.33577 20614 ft 369 kts 260°
2026-05-06 19:55 48.11464 14.29767 20101 ft 366 kts 260°
2026-05-06 19:55 48.11196 14.25990 19592 ft 364 kts 260°
2026-05-06 19:55 48.10928 14.22235 19086 ft 362 kts 260°
2026-05-06 19:56 48.10659 14.18492 18578 ft 360 kts 260°
2026-05-06 19:56 48.10391 14.14773 18038 ft 359 kts 260°
2026-05-06 19:56 48.10123 14.11070 17481 ft 357 kts 260°
2026-05-06 19:56 48.09855 14.07383 16949 ft 355 kts 261°
2026-05-06 19:57 48.09589 14.03729 16432 ft 352 kts 261°
2026-05-06 19:57 48.09325 14.00114 16035 ft 347 kts 261°
2026-05-06 19:57 48.09062 13.96533 15542 ft 345 kts 261°
2026-05-06 19:57 48.08803 13.93028 15073 ft 342 kts 261°
2026-05-06 19:58 48.08538 13.89455 14594 ft 340 kts 261°
2026-05-06 19:58 48.08276 13.85951 14127 ft 338 kts 261°
2026-05-06 19:58 48.08018 13.82504 13675 ft 337 kts 261°
2026-05-06 19:58 48.07758 13.79034 13147 ft 335 kts 261°
2026-05-06 19:59 48.07498 13.75584 12653 ft 333 kts 261°
2026-05-06 19:59 48.07239 13.72158 12185 ft 331 kts 261°
2026-05-06 19:59 48.06980 13.68757 11732 ft 328 kts 261°
2026-05-06 19:59 48.06725 13.65409 11501 ft 319 kts 261°
2026-05-06 20:00 48.06477 13.62159 11243 ft 311 kts 261°
2026-05-06 20:00 48.06234 13.58986 11032 ft 303 kts 261°
2026-05-06 20:00 48.05996 13.55893 10824 ft 296 kts 261°
2026-05-06 20:00 48.05759 13.52870 10635 ft 289 kts 261°
2026-05-06 20:01 48.05515 13.49924 10516 ft 281 kts 260°
2026-05-06 20:01 48.05275 13.47059 10392 ft 274 kts 260°
2026-05-06 20:01 48.05040 13.44276 10256 ft 266 kts 260°
2026-05-06 20:01 48.04812 13.41571 10137 ft 259 kts 260°
2026-05-06 20:02 48.04590 13.38935 10005 ft 253 kts 260°
2026-05-06 20:02 48.04372 13.36365 9885 ft 246 kts 259°
2026-05-06 20:02 48.04158 13.33846 9719 ft 242 kts 259°
2026-05-06 20:02 48.03945 13.31360 9472 ft 241 kts 259°
2026-05-06 20:03 48.03733 13.28873 9236 ft 239 kts 259°
2026-05-06 20:03 48.03527 13.26460 8874 ft 237 kts 260°
2026-05-06 20:03 48.03315 13.23999 8421 ft 239 kts 260°
2026-05-06 20:03 48.03106 13.21553 8089 ft 235 kts 261°
2026-05-06 20:04 48.02901 13.19156 7815 ft 229 kts 261°
2026-05-06 20:04 48.02700 13.16828 7575 ft 222 kts 261°
2026-05-06 20:04 48.02505 13.14566 7342 ft 216 kts 261°
2026-05-06 20:04 48.02314 13.12370 7120 ft 210 kts 261°
2026-05-06 20:05 48.02128 13.10243 6888 ft 205 kts 261°
2026-05-06 20:05 48.01943 13.08158 6662 ft 200 kts 262°
2026-05-06 20:05 48.01763 13.06136 6440 ft 196 kts 262°
2026-05-06 20:05 48.01585 13.04131 6213 ft 193 kts 262°
2026-05-06 20:06 48.01412 13.02165 6012 ft 187 kts 263°
2026-05-06 20:06 48.01243 13.00279 5913 ft 182 kts 263°
2026-05-06 20:06 48.01076 12.98410 5822 ft 180 kts 263°
2026-05-06 20:06 48.00912 12.96566 5737 ft 178 kts 263°
2026-05-06 20:07 48.00748 12.94743 5664 ft 176 kts 264°
2026-05-06 20:07 48.00586 12.92937 5497 ft 174 kts 263°
2026-05-06 20:07 48.00252 12.91253 5308 ft 170 kts 241°
2026-05-06 20:07 47.99426 12.90026 5172 ft 169 kts 220°
2026-05-06 20:08 47.98302 12.89407 5066 ft 180 kts 191°
2026-05-06 20:08 47.97047 12.89749 5018 ft 189 kts 174°
2026-05-06 20:08 47.95753 12.90286 4777 ft 194 kts 173°
2026-05-06 20:08 47.94460 12.90901 4511 ft 196 kts 168°
2026-05-06 20:09 47.93192 12.91649 4252 ft 196 kts 166°
2026-05-06 20:09 47.91942 12.92434 3982 ft 194 kts 165°
2026-05-06 20:09 47.90703 12.93217 3736 ft 193 kts 165°
2026-05-06 20:09 47.89461 12.94002 3469 ft 194 kts 165°
2026-05-06 20:10 47.88224 12.94783 3220 ft 191 kts 164°
2026-05-06 20:10 47.87005 12.95551 2946 ft 188 kts 163°
2026-05-06 20:10 47.85837 12.96292 2707 ft 177 kts 163°
2026-05-06 20:10 47.84728 12.96991 2445 ft 167 kts 160°
2026-05-06 20:11 47.83714 12.97629 2180 ft 152 kts 158°
2026-05-06 20:11 47.82730 12.98247 1982 ft 158 kts 158°
2026-05-06 20:11 47.81726 12.98880 1758 ft 155 kts 157°
2026-05-06 20:11 47.80741 12.99505 1553 ft 154 kts 158°
2026-05-06 20:12 47.79755 13.00129 1416 ft 147 kts 158°
2026-05-06 20:12 47.78949 13.00639 1414 ft 89 kts 157°
2026-05-06 20:12 47.78662 13.00821 1414 ft 24 kts 157°
2026-05-06 20:12 47.78567 13.00840 1413 ft 10 kts 222°
2026-05-06 20:13 47.78537 13.00752 1416 ft 9 kts 246°
2026-05-06 20:13 47.78527 13.00662 1413 ft 9 kts 291°
2026-05-06 20:13 47.78575 13.00608 1413 ft 9 kts 337°
2026-05-06 20:13 47.78631 13.00572 1413 ft 9 kts 337°
2026-05-06 20:14 47.78689 13.00536 1414 ft 10 kts 337°
2026-05-06 20:14 47.78755 13.00494 1415 ft 11 kts 336°
2026-05-06 20:14 47.78824 13.00451 1416 ft 12 kts 337°
2026-05-06 20:14 47.78863 13.00426 1413 ft 0 kts 337°
2026-05-06 20:16 47.78872 13.00420 1413 ft 4 kts 336°
2026-05-06 20:16 47.78914 13.00394 1413 ft 9 kts 337°
2026-05-06 20:16 47.78952 13.00306 1415 ft 12 kts 273°
2026-05-06 20:16 47.78959 13.00175 1413 ft 12 kts 290°
2026-05-06 20:17 47.79021 13.00114 1416 ft 10 kts 337°
2026-05-06 20:17 47.79082 13.00075 1413 ft 9 kts 337°
2026-05-06 20:17 47.79139 13.00033 1421 ft 9 kts 319°
2026-05-06 20:17 47.79158 12.99955 1413 ft 7 kts 281°
2026-05-06 20:18 47.79165 12.99910 1420 ft 3 kts 281°
2026-05-06 20:18 47.79166 12.99898 1417 ft 0 kts 281°